Regional Weather Roundup
Issued by NWS

Home | Current Version | Previous Version | Graphics & Text | Print | Product List | Glossary On
Versions: 1 2 3 4 5 6 7 8 9 10 11 12 13 14 15 16 17 18 19 20 21 22 23 24 25 26 27 28 29 30 31 32 33 34 35 36 37 38 39 40 41 42 43 44 45 46 47 48 49 50
198
ASUS43 KLSX 270357
RWRMO

WEATHER SUMMARY FOR MISSOURI
NATIONAL WEATHER SERVICE SPRINGFIELD MO
1100 PM CDT SUN MAR 26 2017

NOTE: "FAIR" INDICATES FEW OR NO CLOUDS BELOW 12,000 FEET WITH NO
       SIGNIFICANT WEATHER AND/OR OBSTRUCTIONS TO VISIBILITY.
       CURRENT SKY AND/OR WEATHER CONDITIONS ARE NOT AVAILABLE FOR
       CHILLICOTHE AND FARMINGTON.

MOZ001>031-035>038-043-044-053-054-270500-
...NORTHERN AND WESTERN MISSOURI...

CITY           SKY/WX    TMP DP  RH WIND       PRES   REMARKS
KANSAS CTY INT CLOUDY    48  45  89 SE8       29.92R
ST JOSEPH      CLOUDY    46  45  96 NE7       29.92F
CHILLICOTHE      N/A     49  44  83 N5        29.94F

$$
MOZ066>068-077>081-088>096-101>105-270500-
...SOUTHWEST MISSOURI...

CITY           SKY/WX    TMP DP  RH WIND       PRES   REMARKS
SPRINGFIELD    RAIN      58  53  84 CALM      29.92R
JOPLIN         CLOUDY    59  55  87 SE21G30   29.78F

$$
MOZ032>034-039>042-045>050-055>058-069>072-270500-
...CENTRAL MISSOURI...

CITY           SKY/WX    TMP DP  RH WIND       PRES   REMARKS
COLUMBIA       NOT AVBL
JEFFERSON CITY CLOUDY    55  48  77 CALM      29.94R
ROLLA          PTCLDY    54  49  83 E5        29.90S
SEDALIA        CLOUDY    52  49  89 NE3       29.94S
WHITEMAN AFB   CLOUDY    50  50 100 NE8       29.92S
WARRENSBURG    CLOUDY    50  45  81 NE7       29.92F

$$
MOZ051-052-059>065-270500-
...EAST CENTRAL MISSOURI...

CITY           SKY/WX    TMP DP  RH WIND       PRES   REMARKS
ST LOUIS INTL  MOCLDY    55  48  77 NE5       29.93F

$$
MOZ072>076-082>087-097>100-106>115-270500-
...SOUTH CENTRAL AND SOUTHEAST MISSOURI...

CITY           SKY/WX    TMP DP  RH WIND       PRES   REMARKS
CAPE GIRARDEAU PTCLDY    51  47  86 CALM      29.94F
POPLAR BLUFF   PTCLDY    56  53  90 CALM      29.92F
WEST PLAINS    CLOUDY    59  48  67 SE5       29.92R

$$



USA.gov is the U.S. government's official web portal to all federal, state and local government web resources and services.